Theta_e
334 333 333 333 333 334 333 332 332 331 331 332 332 332 331 332 331 329 330 329 326 326 324 326 328 329 330 328 328 324 329 328 327 327 328 328 327 324 323 320 320 322 324
333 334 333 334 334 332 333 331 330 330 329 329 331 331 331 331 331 330 328 327 329 327 325 327 326 329 330 330 329 330 328 327 326 326 326 323 323 322 322 323 324 322 320
334 333 334 333 332 333 333 331 329 330 329 330 331 330 331 331 331 331 331 330 329 328 328 328 328 329 329 329 329 328 327 326 326 326 325 323 324 324 324 323 322 322 322
333 334 334 332 333 333 332 331 329 329 329 330 331 331 331 329 329 330 330 331 332 329 328 328 328 329 327 327 328 327 326 326 325 324 324 324 323 323 322 321 319 319 318
332 335 333 333 332 332 332 332 332 328 330 331 331 330 329 328 329 329 330 331 331 331 330 328 327 327 328 326 326 327 326 325 324 323 323 322 322 322 320 319 317 318 319
335 335 333 331 332 333 333 332 331 328 331 331 329 329 329 328 328 329 331 331 332 330 327 327 328 328 328 328 327 327 325 324 323 323 322 322 321 319 319 318 317 316 313
335 334 332 331 332 332 332 331 330 331 331 330 329 329 328 327 329 331 331 331 331 330 328 328 329 329 329 328 327 325 325 323 323 322 322 320 318 319 318 317 316 315 315
334 334 333 333 333 333 333 331 331 330 330 331 330 328 326 327 328 331 331 331 330 330 329 328 328 328 328 326 325 325 325 323 323 322 323 321 321 319 319 318 316 316 314
334 334 334 333 333 332 333 332 330 330 330 331 329 326 325 327 329 331 331 330 330 330 328 329 328 327 327 326 325 324 324 324 323 323 323 323 322 320 318 318 318 315 315
333 334 333 332 333 332 332 331 331 331 331 331 329 325 325 327 329 331 331 331 330 330 329 327 326 327 326 326 325 324 323 324 323 323 322 322 320 320 319 323 317 317 318
333 333 333 333 334 333 333 333 331 331 330 330 328 327 326 326 329 330 330 329 328 327 326 325 325 326 326 325 325 324 324 324 324 323 321 319 321 319 321 325 319 318 319
333 333 333 333 334 333 333 332 332 330 329 329 328 328 326 326 329 330 330 328 327 326 325 325 325 325 325 325 325 324 324 324 323 322 320 320 324 324 323 326 323 321 319
333 333 334 334 333 332 333 334 332 331 329 328 328 328 326 326 327 330 329 329 327 326 326 325 325 325 325 325 325 324 324 324 324 324 322 320 323 325 326 326 326 324 324
334 334 334 335 335 333 333 333 333 332 331 330 329 329 327 325 327 329 329 328 326 326 326 326 325 325 325 325 325 325 325 325 325 325 324 322 322 324 327 326 325 323 323
333 333 333 332 334 336 334 335 334 334 333 332 331 329 327 326 327 329 329 328 326 325 325 325 324 324 324 324 324 326 326 326 326 325 325 325 325 327 326 326 325 320 321
333 332 334 332 332 332 331 329 331 329 333 333 331 329 328 327 326 329 329 328 326 325 324 324 324 324 323 324 324 327 327 326 326 326 327 326 326 326 326 326 325 321 318
332 333 333 334 333 332 326 323 322 323 333 334 332 330 329 328 326 328 329 328 326 324 325 325 324 324 325 325 325 326 326 326 325 327 326 324 324 324 325 324 322 320 317
331 333 332 332 333 332 331 325 323 323 324 327 333 331 330 327 327 329 329 327 326 325 327 328 326 323 325 325 326 326 325 326 327 326 326 326 326 325 324 323 322 319 318
331 330 330 332 331 333 332 328 325 323 323 325 328 330 330 327 327 329 329 328 327 327 329 329 328 327 321 320 320 320 323 325 327 325 326 326 325 324 321 320 321 320 319
329 330 330 329 332 331 331 330 326 325 324 322 325 326 328 327 327 328 328 328 328 327 328 329 328 329 329 327 324 321 321 323 326 325 325 325 324 322 320 320 320 319 319
328 329 329 329 327 330 330 329 330 326 325 322 323 325 328 327 325 327 327 327 328 328 328 327 328 328 329 328 328 325 324 324 323 325 324 324 325 323 321 321 320 319 319
329 328 328 327 327 327 327 328 331 330 326 324 322 323 325 327 326 326 326 326 328 329 328 328 328 327 327 326 324 326 326 325 325 325 325 325 324 324 324 322 320 320 320
330 329 328 327 326 327 326 326 327 328 329 327 324 322 322 325 324 324 324 324 325 326 327 324 323 322 320 319 319 322 322 321 320 321 323 325 325 325 324 324 323 321 321
329 330 328 328 327 326 327 325 325 326 326 327 328 324 322 320 321 322 322 323 322 322 320 319 319 323 324 322 322 321 321 323 323 322 321 320 322 325 325 325 324 323 322
331 330 330 329 328 327 326 327 325 325 326 325 325 326 324 322 320 320 320 320 320 321 320 320 319 317 319 323 322 322 322 320 320 320 323 323 323 322 322 323 324 323 323
332 331 332 331 329 328 327 327 327 325 324 324 325 325 324 323 322 322 322 321 320 320 320 320 320 320 319 319 318 318 320 323 323 321 320 321 323 323 323 322 322 323 322
Wind_Speed
19 16 15 13 12 11 9 9 9 12 10 8 7 7 7 5 3 5 5 5 6 4 3 4 4 4 8 6 8 21 20 20 10 11 18 31 36 37 38 42 41 41 38
19 16 15 14 11 9 10 11 12 11 11 9 7 7 6 6 5 4 4 5 4 5 5 6 4 3 7 10 19 20 26 27 26 17 22 27 36 39 41 36 35 40 37
20 17 15 15 10 9 11 12 13 11 10 9 7 12 8 8 6 6 3 2 6 5 5 5 7 8 15 19 21 23 24 28 26 25 23 29 28 36 36 35 34 36 36
19 20 19 12 11 11 11 13 12 12 10 10 12 13 9 9 6 5 3 3 3 7 7 11 9 11 20 20 21 24 27 28 26 26 26 27 30 32 39 38 33 32 32
21 20 18 15 11 11 11 11 7 12 13 17 13 11 10 7 6 5 3 3 4 11 15 15 12 12 19 18 22 25 29 27 28 22 25 28 30 30 30 30 30 33 30
23 22 18 15 11 11 12 10 9 11 17 13 11 14 9 10 6 5 5 6 8 13 17 16 13 15 17 20 23 28 36 35 29 25 27 27 22 29 32 32 34 26 8
22 23 21 18 14 13 12 11 11 17 17 15 15 12 12 11 6 7 8 11 13 15 16 15 15 17 20 23 25 33 30 34 37 37 32 30 31 36 36 30 27 22 16
21 22 23 19 15 15 15 13 13 15 16 16 14 11 14 11 7 8 12 13 16 17 15 16 19 22 27 30 30 31 29 32 32 29 43 39 43 38 38 34 27 18 26
20 23 25 19 16 19 17 16 15 16 17 15 16 13 14 12 9 11 14 15 17 17 16 17 19 23 29 33 35 33 30 27 31 34 36 37 38 35 30 28 22 27 17
25 25 25 23 20 21 18 16 13 13 18 20 16 14 13 12 9 11 14 19 20 19 18 18 16 19 30 36 35 36 30 31 32 31 28 30 32 28 30 23 30 25 19
27 27 25 23 21 18 17 16 15 16 18 19 17 13 12 11 10 12 14 19 21 20 21 17 20 22 30 33 37 36 35 36 32 30 27 32 25 24 25 17 25 28 26
28 27 27 25 22 21 20 18 17 18 17 18 16 13 10 11 12 13 15 16 17 23 22 21 19 23 27 30 31 30 34 34 27 26 30 33 25 21 23 18 18 20 19
31 28 29 28 24 23 24 21 21 20 20 19 19 16 14 12 13 12 17 16 19 25 24 22 20 20 25 25 26 30 30 29 26 26 26 28 25 20 15 19 17 12 16
31 30 30 31 26 23 23 22 23 23 20 18 17 17 16 16 18 17 19 18 21 26 23 20 21 21 22 24 27 31 28 29 31 26 25 28 25 19 19 20 18 14 14
32 32 29 30 26 24 22 21 21 23 23 24 21 23 21 19 23 22 23 26 25 24 22 21 18 21 25 28 29 25 26 28 25 26 26 26 27 25 23 21 18 18 17
27 28 27 29 27 25 19 12 15 15 27 23 22 24 21 21 25 26 25 24 24 25 23 22 19 24 23 24 27 26 26 31 30 28 27 28 28 27 26 24 22 23 22
28 27 29 29 27 26 22 21 17 12 20 26 23 22 22 22 26 27 25 22 24 24 23 20 21 26 25 24 27 28 28 30 31 29 28 29 29 28 28 27 25 23 23
34 34 31 29 28 28 25 24 23 21 19 20 28 26 25 24 30 27 25 25 27 23 21 21 23 28 30 30 31 32 30 26 27 32 32 34 33 31 30 29 29 28 28
35 33 31 28 30 28 29 27 25 24 23 22 22 27 32 28 33 30 28 31 30 30 27 22 25 28 31 34 32 30 29 24 30 35 33 36 35 32 30 31 33 33 32
34 33 32 30 26 30 30 27 25 26 26 27 26 28 35 33 35 35 33 33 32 32 33 30 22 25 30 34 34 33 32 29 34 35 31 34 38 37 36 35 36 36 35
31 33 35 29 29 29 28 27 26 28 26 28 31 35 39 39 35 36 36 32 29 31 35 35 33 28 27 28 36 41 40 38 38 36 37 38 34 40 39 36 34 36 35
33 33 36 31 27 27 29 29 33 27 29 26 28 35 40 40 36 36 38 40 40 36 35 34 35 35 35 31 32 37 35 38 39 40 41 41 42 40 38 39 38 36 35
31 32 32 30 32 26 28 34 31 34 29 31 29 31 42 40 34 36 38 42 43 44 42 36 33 36 34 34 34 33 42 42 40 37 36 39 41 40 41 39 38 39 35
23 29 31 31 28 31 26 30 33 34 36 32 34 33 43 44 39 38 40 41 43 46 46 47 46 42 35 35 38 36 36 35 35 37 38 40 39 39 40 42 40 37 37
15 14 26 28 28 29 29 26 32 35 34 36 35 36 41 42 42 41 40 41 42 42 44 44 47 49 50 45 41 33 39 42 42 42 39 38 38 40 41 40 40 38 36
17 17 8 22 31 32 31 30 30 35 35 34 36 37 37 40 42 41 40 42 43 43 44 43 43 42 41 41 44 49 46 37 32 36 42 41 41 38 38 40 40 39 37
Wind_Direction
156 169 177 171 158 153 151 154 148 150 154 150 161 159 163 169 197 202 187 179 169 159 132 100 107 166 180 206 184 169 157 151 125 121 132 143 140 136 136 138 139 139 140
164 177 162 168 156 153 160 160 171 160 168 149 148 144 152 128 119 150 178 197 194 148 133 106 99 171 192 151 153 151 147 141 137 131 126 129 131 131 133 141 136 140 136
172 169 155 142 146 162 163 166 166 167 173 167 152 132 129 112 113 99 85 99 111 138 114 131 110 127 129 125 129 128 130 131 132 133 128 132 132 135 126 125 127 131 134
174 163 149 148 156 157 164 178 179 180 168 157 135 120 115 108 100 96 96 74 110 127 146 149 145 153 142 128 124 127 130 128 128 127 128 129 128 129 126 123 116 123 132
163 155 149 150 155 162 178 176 197 174 150 140 129 119 111 115 115 117 130 84 114 112 116 135 131 140 154 156 151 144 140 136 134 124 129 127 124 120 122 125 121 129 136
159 149 147 145 158 164 168 167 119 167 147 138 127 127 129 123 127 125 108 109 117 121 120 115 114 131 143 153 161 158 146 139 136 128 126 124 126 127 132 134 131 134 124
158 152 158 154 157 161 160 156 141 141 144 135 132 132 129 126 106 86 103 122 124 127 129 121 117 136 145 148 150 148 136 143 146 140 135 138 139 146 141 142 147 146 147
158 154 162 157 162 162 162 161 153 148 143 139 141 136 140 131 100 86 116 120 120 126 127 126 127 137 143 139 134 135 125 138 143 145 149 153 156 154 156 158 147 133 141
162 155 158 158 151 161 160 161 163 160 154 153 145 134 142 133 105 109 125 128 119 125 131 134 134 141 144 143 129 130 130 136 152 159 160 163 162 162 156 142 145 136 140
170 162 162 162 157 162 159 158 156 152 155 155 143 137 139 136 114 121 135 134 123 125 124 130 136 142 148 149 138 140 139 147 153 157 157 159 157 154 152 163 161 153 150
169 159 164 164 155 158 156 152 147 146 143 144 137 131 136 144 123 133 143 135 132 132 132 131 141 148 150 151 156 156 153 160 161 159 154 154 150 159 168 174 178 173 168
157 157 159 159 153 157 149 147 150 150 153 154 148 136 141 149 139 140 147 131 135 137 133 134 139 152 151 151 159 157 156 156 143 144 151 163 169 168 179 177 186 202 210
156 155 153 156 159 159 152 153 152 158 159 157 159 156 152 154 149 144 151 136 143 138 132 132 136 146 152 159 161 159 148 151 153 158 169 179 181 172 179 187 200 206 220
145 156 159 154 157 160 165 167 165 165 164 167 167 163 158 155 157 155 155 150 144 142 137 133 138 141 151 152 155 161 156 165 168 170 178 185 187 193 196 196 199 201 207
151 157 153 157 162 166 177 182 184 183 179 178 177 169 161 166 169 160 156 157 158 153 149 144 138 146 149 155 159 156 167 169 174 181 184 188 195 201 201 200 205 189 188
153 162 158 161 169 171 167 158 184 194 199 192 184 175 177 170 167 164 160 162 161 161 156 156 147 150 152 160 169 172 176 185 188 188 196 198 200 202 201 203 210 205 208
164 166 169 165 172 178 173 149 138 125 162 180 176 176 168 167 169 170 171 169 165 162 158 164 167 168 170 174 180 187 189 193 200 203 204 203 204 205 206 209 213 215 219
172 174 175 178 176 183 188 177 161 146 138 156 180 179 175 163 167 170 175 174 175 181 181 184 181 182 184 189 193 197 205 211 217 210 214 211 208 207 210 217 218 216 219
177 178 182 183 188 189 193 191 184 175 164 158 168 180 179 174 175 177 181 183 187 195 199 203 203 198 197 200 206 214 217 229 214 211 217 210 209 212 216 219 223 223 221
181 185 187 193 191 194 194 193 183 182 177 175 176 179 179 179 181 186 188 192 196 201 209 215 220 211 209 213 212 213 217 220 213 217 218 218 218 216 219 221 224 219 220
182 186 192 197 199 196 200 194 195 185 183 185 188 189 188 187 190 195 199 201 203 207 213 219 225 225 226 234 215 216 218 221 222 222 223 223 217 217 222 224 225 226 226
179 187 193 197 204 201 202 201 202 191 190 188 193 199 198 196 197 201 206 211 212 213 220 225 229 233 234 235 229 221 221 223 224 224 224 226 229 226 225 227 230 231 230
182 186 192 195 204 209 207 205 207 206 194 195 194 194 203 201 204 206 211 217 220 222 221 221 228 234 236 238 238 238 228 229 230 231 232 232 230 226 228 228 228 229 226
202 191 193 195 198 207 217 205 207 213 212 205 199 198 203 206 208 212 216 220 224 227 228 227 227 230 231 234 237 239 242 240 238 236 238 238 235 231 229 227 229 230 232
358 227 198 199 204 207 211 219 208 210 212 212 216 210 207 209 212 214 217 219 223 226 230 232 234 234 233 235 236 235 239 241 242 240 238 237 237 237 233 230 229 230 230
355 350 359 205 199 206 211 215 215 209 212 215 216 222 221 214 216 217 217 220 221 225 229 234 237 238 239 239 240 240 241 242 242 241 239 236 237 237 234 231 230 228 226